User: anonymous   Login
Location: Montr�al
(45.5000°N, 73.5830°W)
Time: 05:45:51
(UTC-04:00)
Language:

Cosmos 1470 Rocket - Orbit

View from above orbital plane
View from above orbital plane
View from above satellite
View from above satellite

Ground track
Ground track

The orbit data is extracted from the following two-line orbital elements,

1 14148U 83061B   15116.06551986  .00000634  00000-0  74838-4 0  9997
2 14148 082.5166 282.9497 0022481 036.9583 102.1734 14.82985978718768
Epoch (UTC): 26 April 2015 01:34:20
Eccentricity: 0.0022481
inclination: 82.5166°
perigee height: 604 km
apogee height: 635 km
right ascension of ascending node: 282.9497°
argument of perigee: 36.9583°
revolutions per day: 14.82985978
mean anomaly at epoch: 102.1734°
orbit number at epoch: 71876

The dashed part of the orbit path shows where the satellite is in the earth's shadow,  

DLR